EN

Hourly Weather Dziemiony

Today, 20 October, Tuesday

Time Temperature Precipitation Wind Pressure Humidity
00:00 +5°C° 0 mm 2 mps 758 mmHg 90%
01:00 +4°C° 0 mm 2 mps 758 mmHg 92%
02:00 +4°C° 0 mm 2 mps 758 mmHg 92%
03:00 +4°C° 0 mm 2 mps 758 mmHg 92%
04:00 +4°C° 0 mm 2 mps 758 mmHg 92%
05:00 +4°C° 0 mm 2 mps 758 mmHg 91%
06:00 +4°C° 0 mm 2 mps 758 mmHg 91%
07:00 +4°C° 0 mm 2 mps 758 mmHg 90%
08:00 +6°C° 0 mm 2 mps 758 mmHg 85%
09:00 +7°C° 0 mm 3 mps 758 mmHg 79%
10:00 +8°C° 0 mm 3 mps 757 mmHg 74%
11:00 +8°C° 0 mm 4 mps 757 mmHg 69%
12:00 +10°C° 0 mm 4 mps 757 mmHg 65%
13:00 +10°C° 0 mm 5 mps 756 mmHg 61%
14:00 +10°C° 0 mm 5 mps 756 mmHg 63%
15:00 +11°C° 0 mm 4 mps 755 mmHg 66%
16:00 +10°C° 0 mm 4 mps 755 mmHg 68%
17:00 +10°C° 0 mm 4 mps 754 mmHg 69%
18:00 +9°C° 0 mm 5 mps 753 mmHg 70%
19:00 +9°C° 0 mm 5 mps 753 mmHg 71%
20:00 +9°C° 0 mm 5 mps 753 mmHg 71%
21:00 +9°C° 0 mm 5 mps 752 mmHg 71%
22:00 +8°C° 0 mm 5 mps 752 mmHg 72%
23:00 +8°C° 0.1 mm 5 mps 752 mmHg 73%

Tomorrow, 21 October, Wednesday

Time Temperature Precipitation Wind Pressure Humidity
00:00 +8°C° 0.1 mm 4 mps 752 mmHg 75%
01:00 +8°C° 0.1 mm 4 mps 751 mmHg 76%
02:00 +8°C° 0.3 mm 4 mps 751 mmHg 78%
03:00 +8°C° 0.3 mm 4 mps 751 mmHg 80%
04:00 +10°C° 0.3 mm 4 mps 751 mmHg 81%
05:00 +10°C° 0.2 mm 4 mps 751 mmHg 83%
06:00 +10°C° 0.2 mm 4 mps 751 mmHg 86%
07:00 +10°C° 0.2 mm 4 mps 751 mmHg 88%
08:00 +10°C° 0 mm 4 mps 751 mmHg 86%
09:00 +10°C° 0 mm 4 mps 751 mmHg 85%
10:00 +10°C° 0 mm 4 mps 751 mmHg 83%
11:00 +11°C° 0 mm 4 mps 751 mmHg 81%
12:00 +11°C° 0 mm 3 mps 751 mmHg 78%
13:00 +11°C° 0 mm 3 mps 751 mmHg 75%
14:00 +11°C° 0 mm 3 mps 751 mmHg 76%
15:00 +11°C° 0 mm 3 mps 751 mmHg 76%
16:00 +11°C° 0 mm 3 mps 750 mmHg 76%
17:00 +10°C° 0 mm 3 mps 750 mmHg 78%
18:00 +10°C° 0 mm 3 mps 750 mmHg 80%
19:00 +10°C° 0 mm 3 mps 750 mmHg 82%
20:00 +10°C° 0 mm 4 mps 750 mmHg 81%
21:00 +10°C° 0 mm 4 mps 750 mmHg 80%
22:00 +11°C° 0 mm 4 mps 750 mmHg 80%
23:00 +10°C° 0 mm 5 mps 750 mmHg 79%

Day after tomorrow, 22 October, Thursday

Time Temperature Precipitation Wind Pressure Humidity
00:00 +10°C° 0 mm 5 mps 750 mmHg 78%
01:00 +10°C° 0 mm 5 mps 750 mmHg 77%
02:00 +9°C° 0 mm 5 mps 750 mmHg 78%
03:00 +9°C° 0 mm 5 mps 750 mmHg 79%
04:00 +10°C° 0 mm 4 mps 750 mmHg 79%
05:00 +10°C° 0 mm 4 mps 750 mmHg 80%
06:00 +10°C° 0 mm 4 mps 750 mmHg 81%
07:00 +10°C° 0 mm 4 mps 751 mmHg 82%
08:00 +12°C° 0 mm 4 mps 751 mmHg 77%
09:00 +14°C° 0 mm 5 mps 751 mmHg 71%
10:00 +15°C° 0 mm 5 mps 751 mmHg 66%
11:00 +16°C° 0 mm 5 mps 751 mmHg 64%
12:00 +17°C° 0 mm 5 mps 751 mmHg 63%
13:00 +19°C° 0 mm 5 mps 751 mmHg 62%
14:00 +18°C° 0 mm 4 mps 751 mmHg 66%
15:00 +17°C° 0 mm 4 mps 751 mmHg 69%
16:00 +17°C° 0 mm 4 mps 751 mmHg 73%
17:00 +15°C° 0 mm 4 mps 751 mmHg 75%
18:00 +14°C° 0 mm 4 mps 751 mmHg 77%
19:00 +14°C° 0 mm 4 mps 751 mmHg 80%
20:00 +14°C° 0 mm 4 mps 750 mmHg 79%
21:00 +14°C° 0 mm 4 mps 750 mmHg 77%
22:00 +14°C° 0 mm 5 mps 750 mmHg 76%
23:00 +14°C° 0 mm 5 mps 750 mmHg 74%

23 October, Friday

Time Temperature Precipitation Wind Pressure Humidity
00:00 +14°C° 0 mm 5 mps 750 mmHg 72%
01:00 +14°C° 0 mm 5 mps 750 mmHg 70%
02:00 +14°C° 0.2 mm 5 mps 749 mmHg 73%
03:00 +13°C° 0.2 mm 5 mps 749 mmHg 77%
04:00 +13°C° 0.2 mm 5 mps 749 mmHg 80%
05:00 +13°C° 0.8 mm 4 mps 748 mmHg 84%
06:00 +13°C° 0.8 mm 4 mps 748 mmHg 88%
07:00 +13°C° 0.8 mm 4 mps 748 mmHg 92%
08:00 +14°C° 0 mm 5 mps 748 mmHg 88%
09:00 +14°C° 0 mm 5 mps 748 mmHg 84%
10:00 +15°C° 0 mm 6 mps 748 mmHg 81%
11:00 +16°C° 0 mm 6 mps 748 mmHg 76%
12:00 +16°C° 0 mm 6 mps 748 mmHg 71%
13:00 +17°C° 0 mm 7 mps 748 mmHg 66%
14:00 +16°C° 0 mm 6 mps 748 mmHg 68%
15:00 +16°C° 0 mm 5 mps 748 mmHg 70%
16:00 +15°C° 0 mm 4 mps 748 mmHg 71%
17:00 +14°C° 0 mm 4 mps 748 mmHg 75%
18:00 +13°C° 0 mm 3 mps 749 mmHg 79%
19:00 +12°C° 0 mm 3 mps 749 mmHg 83%
20:00 +12°C° 0 mm 3 mps 749 mmHg 84%
21:00 +12°C° 0 mm 3 mps 749 mmHg 85%
22:00 +12°C° 0 mm 2 mps 749 mmHg 86%
23:00 +11°C° 0 mm 3 mps 749 mmHg 84%

24 October, Saturday

Time Temperature Precipitation Wind Pressure Humidity
00:00 +11°C° 0 mm 3 mps 749 mmHg 83%
01:00 +11°C° 0 mm 4 mps 749 mmHg 82%
02:00 +11°C° 0 mm 4 mps 749 mmHg 83%
03:00 +11°C° 0 mm 4 mps 749 mmHg 84%
04:00 +9°C° 0 mm 5 mps 749 mmHg 85%
05:00 +9°C° 0 mm 5 mps 749 mmHg 82%
06:00 +8°C° 0 mm 5 mps 749 mmHg 79%
07:00 +8°C° 0 mm 6 mps 749 mmHg 77%
08:00 +8°C° 0.4 mm 6 mps 749 mmHg 79%
09:00 +8°C° 0.4 mm 6 mps 749 mmHg 82%
10:00 +8°C° 0.4 mm 6 mps 750 mmHg 85%
11:00 +9°C° 0.2 mm 7 mps 750 mmHg 77%
12:00 +10°C° 0.2 mm 7 mps 750 mmHg 70%
13:00 +11°C° 0.2 mm 8 mps 750 mmHg 62%
14:00 +10°C° 0.1 mm 7 mps 751 mmHg 64%
15:00 +10°C° 0.1 mm 6 mps 751 mmHg 66%
16:00 +9°C° 0.1 mm 6 mps 751 mmHg 69%
17:00 +8°C° 0 mm 5 mps 752 mmHg 71%
18:00 +8°C° 0 mm 5 mps 752 mmHg 74%
19:00 +7°C° 0 mm 5 mps 753 mmHg 77%
20:00 +7°C° 0 mm 5 mps 753 mmHg 79%
21:00 +7°C° 0 mm 5 mps 754 mmHg 81%
22:00 +6°C° 0 mm 5 mps 754 mmHg 82%
23:00 +6°C° 0 mm 4 mps 754 mmHg 85%

25 October, Sunday

Time Temperature Precipitation Wind Pressure Humidity
00:00 +6°C° 0 mm 4 mps 755 mmHg 87%
01:00 +5°C° 0 mm 3 mps 755 mmHg 89%
02:00 +5°C° 0 mm 3 mps 755 mmHg 91%
03:00 +5°C° 0 mm 3 mps 755 mmHg 92%
04:00 +5°C° 0 mm 2 mps 755 mmHg 94%
05:00 +5°C° 0 mm 2 mps 756 mmHg 94%
06:00 +5°C° 0 mm 2 mps 756 mmHg 94%
07:00 +5°C° 0 mm 2 mps 756 mmHg 94%
08:00 +6°C° 0 mm 2 mps 756 mmHg 88%
09:00 +8°C° 0 mm 2 mps 756 mmHg 81%
10:00 +9°C° 0 mm 2 mps 756 mmHg 74%
11:00 +10°C° 0 mm 2 mps 756 mmHg 70%
12:00 +12°C° 0 mm 2 mps 756 mmHg 65%
13:00 +13°C° 0 mm 2 mps 756 mmHg 60%
14:00 +12°C° 0 mm 2 mps 756 mmHg 63%
15:00 +10°C° 0 mm 2 mps 755 mmHg 66%
16:00 +10°C° 0 mm 2 mps 755 mmHg 69%
17:00 +9°C° 0 mm 2 mps 755 mmHg 72%
18:00 +8°C° 0 mm 2 mps 755 mmHg 75%
19:00 +7°C° 0 mm 3 mps 755 mmHg 78%
20:00 +7°C° 0 mm 3 mps 755 mmHg 79%
21:00 +7°C° 0 mm 3 mps 755 mmHg 80%
22:00 +7°C° 0 mm 3 mps 755 mmHg 81%
23:00 +5°C° 0 mm 3 mps 754 mmHg 81%

26 October, Monday

Time Temperature Precipitation Wind Pressure Humidity
00:00 +5°C° 0 mm 3 mps 754 mmHg 82%
01:00 +5°C° 0 mm 4 mps 754 mmHg 82%
02:00 +5°C° 0 mm 4 mps 754 mmHg 83%
03:00 +5°C° 0 mm 4 mps 753 mmHg 83%
04:00 +5°C° 0 mm 4 mps 753 mmHg 83%
05:00 +5°C° 0 mm 4 mps 752 mmHg 84%
06:00 +4°C° 0 mm 4 mps 752 mmHg 84%
07:00 +3°C° 0 mm 5 mps 752 mmHg 84%
08:00 +6°C° 0 mm 5 mps 752 mmHg 77%
09:00 +7°C° 0 mm 5 mps 751 mmHg 71%
10:00 +8°C° 0 mm 5 mps 751 mmHg 64%
11:00 +9°C° 0 mm 6 mps 750 mmHg 63%
12:00 +10°C° 0 mm 6 mps 750 mmHg 62%
13:00 +10°C° 0 mm 6 mps 749 mmHg 61%
14:00 +10°C° 0 mm 5 mps 749 mmHg 64%
15:00 +10°C° 0 mm 5 mps 749 mmHg 67%
16:00 +10°C° 0 mm 4 mps 748 mmHg 69%
17:00 +10°C° 0 mm 4 mps 748 mmHg 71%
18:00 +10°C° 0 mm 4 mps 748 mmHg 73%
19:00 +8°C° 0 mm 4 mps 748 mmHg 75%
20:00 +8°C° 0 mm 4 mps 748 mmHg 75%
21:00 +10°C° 0 mm 4 mps 748 mmHg 75%
22:00 +10°C° 0 mm 4 mps 748 mmHg 75%
23:00 +9°C° 0 mm 3 mps 748 mmHg 78%
Show more